[Iaude] MPEC K14: 2019 EH7 [a=51.53,e=0.24,i=29.4,H=7.7]

mpec at cfa.harvard.edu mpec at cfa.harvard.edu
Fri May 17 15:27:17 EDT 2024


M.P.E.C. 2024-K14                                  Issued 2024 May 17, 19:25 UT

     The Minor Planet Electronic Circulars contain information on unusual
         minor planets, routine data on comets and natural satellites,
         and occasional editorial announcements.  They are published
    on behalf of Division F of the International Astronomical Union by the
          Minor Planet Center, Smithsonian Astrophysical Observatory,
                          Cambridge, MA 02138, U.S.A.
			  
             Prepared using the Tamkin Foundation Computer Network

                              MPC at CFA.HARVARD.EDU
            URL https://www.minorplanetcenter.net/    ISSN 1523-6714

                                    2019 EH7                                    


Observations:
     K19E07H 4C2018 03 18.47675 11 43 37.71 +04 14 00.7          24.0 i1EK014T09
     K19E07H 4C2018 03 18.57604 11 43 37.29 +04 14 03.9          23.7 i1EK014T09
     K19E07H 4C2018 03 18.58939 11 43 37.24 +04 14 04.1          23.8 i1EK014T09
     K19E07H 4C2018 03 18.60275 11 43 37.20 +04 14 04.9          23.9 i1EK014T09
     K19E07H 4C2018 03 18.60542 11 43 37.17 +04 14 04.9          23.7 i1EK014T09
     K19E07H 4C2018 04 24.36908 11 41 23.49 +04 31 34.7          24.1 z1EK014T09
     K19E07H 4C2018 04 24.37247 11 41 23.47 +04 31 34.8          24.3 z1EK014T09
     K19E07H 4C2018 04 24.41221 11 41 23.36 +04 31 35.8          23.7 z1EK014T09
     K19E07H 4C2018 04 24.45861 11 41 23.21 +04 31 36.8          24.3 z1EK014T09
     K19E07H 4C2019 02 05.47125 11 50 49.88 +03 59 50.9          24.2 i1EK014T09
     K19E07H 4C2019 02 05.48460 11 50 49.84 +03 59 51.6          23.8 i1EK014T09
     K19E07H 4C2019 02 05.52237 11 50 49.71 +03 59 52.3          24.2 i1EK014T09
     K19E07H 4C2019 02 05.52504 11 50 49.72 +03 59 52.3          24.5 i1EK014T09
     K19E07H 4C2019 03 02.44784 11 49 25.27 +04 12 21.3          24.1 y1EK014T09
     K19E07H 4C2019 03 02.54583 11 49 24.92 +04 12 24.5          24.7 y1EK014T09
     K19E07H 4C2019 03 02.57532 11 49 24.78 +04 12 25.4          23.9 y1EK014T09
     K19E07H 4C2019 03 02.58604 11 49 24.74 +04 12 25.7          24.0 y1EK014T09
     K19E07H*4C2019 03 08.37068 11 49 02.26 +04 15 32.6          24.9 r1EK014T09
     K19E07H 4C2019 03 08.38114 11 49 02.23 +04 15 32.8          24.4 r1EK014T09
     K19E07H 4C2019 03 08.41270 11 49 02.11 +04 15 34.0          24.5 r1EK014T09
     K19E07H 4C2019 03 08.41479 11 49 02.08 +04 15 34.0          24.6 r1EK014T09

Observer details:
T09 Subaru Telescope, Maunakea.  Observers H. Aihara, Y. AlSayyad, M. Ando, R.
    Armstrong, J. Bosch, E. Egami, H. Furusawa, J. Furusawa, S. Harasawa, Y.
    Harikane, B.-C. Hsieh, H. Ikeda, K. Ito, I. Iwata, T. Kodama, M. Koike, M.
    Kokubo, Y. Komiyama, X. Li, Y. Liang, Y.-T. Lin, R. H. Lupton, N. B. Lust,
    L. A. MacArthur, K. Mawatari, S. Mineo, H. Miyatake, S. Miyazaki, S. More,
    T. Morishima, H. Murayama, K. Nakajima, F. Nakata, A. J. Nishizawa, M.
    Oguri, N. Okabe, Y. Okura, Y. Ono, K. Osato, M. Ouchi, Y.-C. Pan, A. A.
    Plazas Malagon, P. A. Price, S. L. Reed, E. S. Rykoff, T. Shibuya, M.
    Simunovic, M. A. Strauss, K. Sugimori, Y. Suto, N. Suzuki, M. Takada, Y.
    Takagi, T. Takata, S. Takita, M. Tanaka, S. Tang, D. S. Taranu, T. Terai,
    Y. Toba, E. L. Turner, H. Uchiyama, B. Vijarnwannaluk, C. Z. Waters, Y.
    Yamada, N. Yamamoto, T. Yamashita.  Measurers A. Yamauchi, H. Fukuyama, M.
    Higano.  8.2-m f/2.0 reflector + CCD(HSC).

Orbital elements:
2019 EH7                                                                        
Epoch 2024 Mar. 31.0 TT = JDT 2460400.5                 Alexandersen            
M  59.29708              (2000.0)            P               Q                  
n   0.00266431     Peri.  285.40227     -0.12622798     -0.98882818             
a  51.5323120      Node   170.69433     +0.98820061     -0.11835303             
e   0.2381747      Incl.   29.35941     -0.08675279     +0.09061669             
P 370              H    7.78          G   0.15           U   7                  
Residuals in seconds of arc
180318 T09  0.1+  0.0     180424 T09  0.1+  0.1+    190302 T09  0.2+  0.0
180318 T09  0.1-  0.0     180424 T09  0.1-  0.0     190302 T09  0.2-  0.0
180318 T09  0.0   0.2-    190205 T09  0.1+  0.1-    190302 T09  0.2-  0.1-
180318 T09  0.2+  0.1+    190205 T09  0.1+  0.3+    190308 T09  0.0   0.1+
180318 T09  0.1-  0.1+    190205 T09  0.2-  0.0     190308 T09  0.2+  0.1-
180424 T09  0.1+  0.0     190205 T09  0.1+  0.1-    190308 T09  0.3+  0.1+
180424 T09  0.1-  0.0     190302 T09  0.3-  0.0     190308 T09  0.0   0.0

Ephemeris:
2019 EH7                 a,e,i = 51.53, 0.24, 29                 q = 39.2586
Date    TT    R. A. (2000) Decl.     Delta      r    Elong.  Phase     V
2024 04 17    12 09 21.9 +05 09 06  46.9181 47.8100   152.4     0.6    24.6
...
2024 05 02    12 08 33.9 +05 14 38  47.0672 47.8188   137.8     0.8    24.7
...
2024 05 10    12 08 12.7 +05 16 57  47.1676 47.8234   130.0     0.9    24.7
...
2024 05 16    12 07 59.3 +05 18 21  47.2509 47.8270   124.2     1.0    24.7
2024 05 17    12 07 57.3 +05 18 33  47.2654 47.8276   123.3     1.0    24.7
2024 05 18    12 07 55.3 +05 18 45  47.2800 47.8281   122.3     1.0    24.7
...
2024 05 24    12 07 45.0 +05 19 46  47.3709 47.8317   116.5     1.1    24.7
...
2024 06 01    12 07 35.0 +05 20 39  47.4992 47.8364   108.8     1.1    24.7
...
2024 06 16    12 07 28.9 +05 20 49  47.7540 47.8452    94.5     1.2    24.7

M. P. C. Staff               (C) Copyright 2024 MPC           M.P.E.C. 2024-K14





More information about the Iaude mailing list